Weather History for Monterey, CA

Change the Weather History Date:

Sunday, March 30, 2014

  Actual Average Record
Temperature  
Mean Temperature 56 °F 53 °F  
Max Temperature 61 °F 61 °F 77 °F (2003)
Min Temperature 50 °F 46 °F 41 °F (1999)
Degree Days  
Heating Degree Days 9    
Month to date heating degree days 231  
Since 1 July heating degree days 2035  
Cooling Degree Days 0    
Month to date cooling degree days 0  
Year to date cooling degree days 2  
Growing Degree Days 6 (Base 50)    
Moisture  
Dew Point 46 °F    
Average Humidity 70    
Maximum Humidity 89    
Minimum Humidity 51    
Precipitation  
Precipitation 0.08 in - 0.35 in (2013)
Month to date precipitation 1.92  
Year to date precipitation 5.72  
Since 1 July precipitation 7.00  
Sea Level Pressure  
Sea Level Pressure 30.14 in    
Wind  
Wind Speed 5 mph (SW)    
Max Wind Speed 13 mph    
Max Gust Speed 17 mph    
Visibility 10 miles    
Events Rain    
T = Trace of Precipitation, MM = Missing Value Source: NWS Daily Summary

Daily Weather History Graph

Daily Weather History Graph

Search for Another Location

Airport:

Trip Planner

Search our weather history database for the weather conditions in past years. The results will help you decide how hot, cold, wet, or windy it might be!

Date:

Astronomy

Mar. 30, 2014 Rise Set
Actual Time 6:56 AM PDT 7:27 PM PDT
Civil Twilight 6:30 AM PDT 7:53 PM PDT
Nautical Twilight 5:59 AM PDT 8:24 PM PDT
Astronomical Twilight 5:28 AM PDT 8:55 PM PDT
Moon 6:45 AM PDT (3/30) 7:45 PM PDT (3/30)
Length of Visible Light 13h 23m
Length of Day
12h 31m
New Moon, 0% of the Moon is Illuminated
Mar 30
New Moon
Apr 7
First Quarter
Apr 15
Full
Apr 22
Last Quarter
Apr 28
New

Hourly Weather History & Observations

Time (PDT) Temp. Dew Point Humidity Pressure Visibility Wind Dir Wind Speed Gust Speed Precip Events Conditions
12:07 AM 53.6 °F 48.2 °F 82% 30.07 in 3.0 mi WNW 10.4 mph - 0.03 in Rain Heavy Rain
12:15 AM 51.8 °F 48.2 °F 88% 30.08 in 5.0 mi WSW 8.1 mph 16.1 mph 0.05 in Rain Light Rain
12:54 AM 53.1 °F 48.0 °F 83% 30.11 in 10.0 mi SW 4.6 mph - 0.05 in Rain Light Rain
1:54 AM 53.1 °F 48.9 °F 86% 30.12 in 10.0 mi SSW 4.6 mph - 0.00 in   Overcast
2:35 AM 53.6 °F 48.2 °F 82% 30.09 in 10.0 mi SSW 4.6 mph - N/A   Overcast
2:45 AM 53.6 °F 48.2 °F 82% 30.09 in 10.0 mi Calm Calm - N/A   Mostly Cloudy
2:54 AM 52.0 °F 48.0 °F 86% 30.12 in 10.0 mi SSW 3.5 mph - N/A   Mostly Cloudy
3:13 AM 53.6 °F 48.2 °F 82% 30.09 in 10.0 mi SW 5.8 mph - N/A   Mostly Cloudy
3:35 AM 53.6 °F 48.2 °F 82% 30.09 in 10.0 mi Calm Calm - N/A   Mostly Cloudy
3:54 AM 53.1 °F 48.0 °F 83% 30.13 in 10.0 mi Calm Calm - N/A   Overcast
4:49 AM 53.6 °F 48.2 °F 82% 30.10 in 10.0 mi WSW 3.5 mph - 0.08 in   Overcast
4:54 AM 53.1 °F 48.0 °F 83% 30.14 in 10.0 mi West 6.9 mph - 0.08 in   Overcast
5:54 AM 53.1 °F 46.0 °F 77% 30.13 in 10.0 mi Calm Calm - N/A   Partly Cloudy
6:54 AM 51.1 °F 46.0 °F 83% 30.15 in 10.0 mi South 3.5 mph - N/A   Partly Cloudy
7:45 AM 51.8 °F 46.4 °F 82% 30.12 in 10.0 mi Calm Calm - N/A   Mostly Cloudy
7:54 AM 53.1 °F 46.0 °F 77% 30.16 in 10.0 mi Variable 3.5 mph - N/A   Scattered Clouds
8:54 AM 55.0 °F 48.0 °F 77% 30.18 in 10.0 mi Calm Calm - N/A   Scattered Clouds
9:54 AM 55.9 °F 46.9 °F 72% 30.19 in 10.0 mi Variable 5.8 mph - N/A   Clear
10:54 AM 57.0 °F 44.1 °F 62% 30.19 in 10.0 mi West 4.6 mph - N/A   Clear
11:54 AM 59.0 °F 41.0 °F 51% 30.20 in 10.0 mi WNW 8.1 mph - N/A   Clear
12:54 PM 59.0 °F 43.0 °F 55% 30.20 in 10.0 mi WNW 8.1 mph - N/A   Clear
1:54 PM 59.0 °F 41.0 °F 51% 30.19 in 10.0 mi West 6.9 mph - N/A   Clear
2:54 PM 60.1 °F 43.0 °F 53% 30.19 in 10.0 mi West 9.2 mph - N/A   Scattered Clouds
3:54 PM 60.1 °F 42.1 °F 51% 30.18 in 10.0 mi West 10.4 mph - N/A   Partly Cloudy
4:54 PM 60.1 °F 43.0 °F 53% 30.16 in 10.0 mi West 9.2 mph - N/A   Partly Cloudy
5:54 PM 57.9 °F 42.1 °F 56% 30.14 in 10.0 mi WSW 11.5 mph - N/A   Clear
6:54 PM 55.9 °F 45.0 °F 67% 30.17 in 10.0 mi WSW 10.4 mph - N/A   Partly Cloudy
7:54 PM 55.0 °F 45.0 °F 69% 30.17 in 10.0 mi WSW 5.8 mph - N/A   Scattered Clouds
8:54 PM 54.0 °F 45.0 °F 72% 30.18 in 10.0 mi South 3.5 mph - N/A   Scattered Clouds
9:17 PM 53.6 °F 44.6 °F 72% 30.14 in 10.0 mi South 3.5 mph - N/A   Mostly Cloudy
9:42 PM 53.6 °F 44.6 °F 72% 30.13 in 10.0 mi Calm Calm - N/A   Scattered Clouds
9:54 PM 53.1 °F 45.0 °F 74% 30.17 in 10.0 mi Calm Calm - N/A   Clear
10:54 PM 51.1 °F 44.1 °F 77% 30.16 in 10.0 mi ESE 3.5 mph - N/A   Partly Cloudy
11:54 PM 51.1 °F 43.0 °F 74% 30.14 in 10.0 mi SE 3.5 mph - N/A   Clear